STARLINK-34254, 64136

Orbit data source: Space-Track

STARLINK-34254, 64136 is a payload satellite owned by SpaceX/Seattle (US) in LEO that was launched on Sat, 24 May 2025 UTC via an FALCON 9 launch vehicle from the Air Force Eastern Test Range (AFETR). Payload-class satellites include a variety of spacecraft equipped with specific instruments for various scientific and technological missions. These include communications satellites like Starlink; space stations such as the ISS; scientific satellites like the Hubble; Earth observation satellites from companies like Planet Labs, Umbra, and HawkEye 360; GPS; miniature CubeSats for education and research; and military/defense satellites.

Loading next visibility...
Identifier
64136, 2025-111P
Orbit
LEO
Country
Flag of USUS
Related business
Manufacturer
SpaceX/Seattle
Mission
Operational Commercial Communications
Bus & Motor
STARLINK V2MO, Unknown motor
Mass
575 kg wet, ~530 kg dry
Launch date (UTC)
2025-05-24 (1 year ago)
Launch vehicle
FALCON 9
Launch site
Air Force Eastern Test Range (AFETR)
Object type
Payload
Rocket body
Debris
Shape & HBR
Box + 2 Pan, 17.7 m
Radar Cross Section
36.964 m², Large (>1 m²)

Expand to show TLE details & history
Last TLE update: 19 hours ago

TLE from 19 hours ago
0 STARLINK-34254
1 64136U 25111P   26171.12829697  .00016031  00000-0  59056-3 0  9990
2 64136  42.9978 219.0418 0001753 261.2674  98.7979 15.27593827 61139
Epoch: 2026-06-20T03:04Z
TLE epoch observation values (Epoch: 2026-06-20T03:04:44.858Z)
Latitude
-0.00001°
Longitude
-95.49249°
Altitude
482.967 km
Speed
7.626 km/s
True Right ascension
14h 36m 10s
True Declination
0° 00' 00"
Sunlit
Object was in full shadow at epoch
Visualization orbit readout
Latitude
Unknown
Longitude
Unknown
Altitude
Unknown
Speed
Unknown
Apparent Right ascension
Unknown
Apparent Declination
Unknown
Sunlit
N/A
Visualization observer readout
Local Sidereal Time
08:33:00
Azimuth
Unknown
Elevation
Unknown
Doppler factor
Unknown
Orbital elements
Apogee altitude
486.156 km
Perigee altitude
483.75 km
Semi-major axis
6,863.09 km
Eccentricity
0.00018
Inclination
42.9978°
RAAN
219.0418°
Arg. of periapsis
261.2674°
True anomaly
98.81775°
Mean anomaly
98.7979°
Eccentric anomaly
98.80783°
Mean motion
3.81736 °/min
Orbital period
94.31 mins
BSTAR
0.00059056
Loading maneuver chart data...
Computing Atmospheric mass density...
Loading historical data...
Loading historical data...
Loading historical data...
Loading historical data...
Loading historical data...
Loading historical data...
Loading historical data...

Documentation

Showing up to 5 results
|